Regional Weather Roundup
Issued by NWS Midland/Odessa, TX

Skip options and go directly to product.
Home | Oldest Version | Previous Version | Current Version | All | Text Only | Save Text | Print | Product List | Glossary On

Skip product version selection by date and time.   
347
ASUS44 KMAF 061510
RWRMAF
MIDLAND AREA WEATHER ROUNDUP
NATIONAL WEATHER SERVICE MIDLAND TX
900 AM CST TUE DEC 06 2016

...IN SOUTHWEST TEXAS AND SOUTHEAST NEW MEXICO...

CITY           SKY/WX    TMP DP  RH WIND       PRES   REMARKS
ALPINE         SUNNY     52  31  45 E5        30.08R
ANDREWS        FAIR      36  20  51 N16G22    30.07S WCI  26
ARTESIA        CLOUDY    34  16  47 N10       30.12R WCI  26
BIG SPRING     CLOUDY    40  29  66 N14       30.08R WCI  32
CARLSBAD       SUNNY     38  19  46 N8        30.09R WCI  32
DRYDEN           N/A     56  36  47 N12G21    29.98R
FORT STOCKTON  SUNNY     41  25  53 MISG      30.05R
GUAD PASS      SUNNY     34  23  64 NE24      30.03R WCI  21
HOBBS          SUNNY     32  14  47 N15       30.08R WCI  22
MARFA          SUNNY     40  31  70 SW5       30.06S WCI  37
MIDLAND AIRPK  SUNNY     40  25  55 N14       30.07R WCI  32
MIDLAND INTL   SUNNY     40  24  53 N16       30.05R WCI  31
ODESSA         SUNNY     39  22  50 N15       30.06R WCI  31
PECOS          SUNNY     41  23  49 N8        30.09R WCI  36
PRESIDIO       FAIR      48  39  71 CALM      30.03R
SEMINOLE       SUNNY     36  16  43 N12G17    30.09R WCI  28
SNYDER         CLOUDY    38  27  63 N18       30.06R WCI  28
WINK           SUNNY     39  20  46 N18G24    30.06R WCI  30
$$
...OTHER STATIONS IN TEXAS...

CITY           SKY/WX    TMP DP  RH WIND       PRES   REMARKS
ABILENE        CLOUDY    40  39  97 N20G32    30.02R FOG     WCI  30
AMARILLO       CLOUDY    26  14  60 N15       30.09R WCI  14
AUSTIN         MOSUNNY   54  50  86 CALM      29.89R
BROWNSVILLE    SUNNY     63  60  90 S7        29.96R
CORPUS CHRISTI MOSUNNY   55  53  93 SW9       29.94R
DALLAS FTW     CLOUDY    49  46  90 NE13      29.93R
DEL RIO        FOG       46  46 100 W3        29.96R VSB 1
EL PASO        PTSUNNY   47  32  56 SE7       29.99R
HOUSTON INT    MOSUNNY   52  51  97 S3        29.91R
LUBBOCK        CLOUDY    34  14  43 N15       30.04R WCI  24
SAN ANGELO     CLOUDY    45  34  65 NW9       30.02R
SAN ANTONIO    SUNNY     55  50  83 NW5       29.90R
WACO           FOG       45  44  97 NW13G18   29.92R VSB 1/4 WCI  39
WICHITA FALLS  NOT AVBL
$$
...OTHER LOCATIONS IN NEW MEXICO...

CITY           SKY/WX    TMP DP  RH WIND       PRES   REMARKS
ALAMAGORDO     NOT AVBL
ALBUQUERQUE    CLOUDY    38  18  44 SE10      29.94R WCI  31
CANNON AFB     CLOUDY    27   7  42 NE17      30.06R WCI  14
CLOVIS         CLOUDY    27   7  43 NE17      30.05S WCI  14
HOLLOMAN AFB   PTSUNNY   44  21  40 S14       30.00R WCI  37
ROSWELL        CLOUDY    36  11  35 NE10      30.10R WCI  28
RUIDOSO        CLOUDY    25  14  63 SE8       30.03R WCI  16
SANTA FE       CLOUDY    28  16  60 S7        29.93R WCI  21
TRUTH OR CONSE CLOUDY    40  19  43 S3        29.95S
TUCUMCARI      MOSUNNY   28   8  43 E10       30.09R WCI  19
$$

  • National Weather Service
  • Southern Region Headquarters
  • 819 Taylor Street, Room 10A06
  • Fort Worth, TX 76102
  • Page Author: NWS Fort Worth
  • Web Master: SR-SRH.Webmaster@noaa.gov
  •  
  • Page last modified: 30-Sep-2016 6:36 PM UTC
USA.gov is the U.S. government's official web portal to all federal, state and local government web resources and services.